This demonstration page uses our WeatherBlox Daily Observations layout. Learn more.

38.88101, -77.10428

Hourly Observations for March 1, 2018

Temp ( °F °C ) Dew Point ( °F °C ) Humidity (%) Winds ( mph kmh ) Pressure ( in mb ) Visibility ( mi km ) Precip ( " mm )
12:52 am 00:52 Cloudy 51 10.6 45 7.2 80 80 SSW 6 9 29.91 1013 10 16.0934 0 0
1:52 am 01:52 Cloudy 51 10.6 45 7.2 80 80 S 5 7 29.9 1012 10 16.0934 0 0
2:52 am 02:52 Cloudy 51 10.6 45 7.2 80 80 Calm 29.88 1012 10 16.0934 0 0
3:52 am 03:52 Cloudy 51 10.6 45 7.2 80 80 Calm 29.85 1011 10 16.0934 0 0
4:52 am 04:52 Cloudy 50 10 45 7.2 83 83 Calm 29.88 1012 10 16.0934 0 0
5:52 am 05:52 Cloudy 50 10 45 7.2 83 83 S 5 7 29.86 1011 10 16.0934 0 0
6:52 am 06:52 Cloudy 50 10 45 7.2 83 83 S 3 6 29.86 1011 10 16.0934 0 0
7:52 am 07:52 Cloudy 51 10.6 45 7.2 80 80 S 7 11 29.85 1011 10 16.0934 0 0
8:52 am 08:52 Cloudy 52 11.1 45 7.2 77 77 S 5 7 29.83 1010 10 16.0934 0 0
9:52 am 09:52 Cloudy with Light Rain 52 11.1 46 7.8 80 80 Calm 29.86 1011 10 16.0934 0 0.0254
10:52 am 10:52 Cloudy with Light Rain 51 10.6 46 7.8 83 83 SSE 3 6 29.83 1010 10 16.0934 0.02 0.508
11:52 am 11:52 Cloudy 53 11.7 49 9.4 86 86 NNE 5 7 29.8 1009 10 16.0934 0 0.0254
12:52 pm 12:52 Cloudy 54 12.2 49 9.4 83 83 NNE 6 9 29.76 1008 10 16.0934 0 0
1:52 pm 13:52 Cloudy 55 12.8 48 8.9 77 77 SE 6 9 29.72 1007 10 16.0934 0 0
2:46 pm 14:46 Cloudy 55 13 46 8 72 72 SE 7 11 29.71 1006 10 16.0934 0 0
2:52 pm 14:52 Cloudy 55 12.8 47 8.3 74 74 SE 8 13 29.7 1006 10 16.0934 0 0
3:52 pm 15:52 Cloudy 55 12.8 48 8.9 77 77 SE 9 15 29.65 1004 10 16.0934 0 0
4:52 pm 16:52 Cloudy 53 11.7 47 8.3 80 80 SE 7 11 29.63 1003 10 16.0934 0 0
5:52 pm 17:52 Cloudy 53 11.7 47 8.3 80 80 SE 6 9 29.61 1003 7 11.26538 0 0
6:52 pm 18:52 Cloudy with Light Drizzle 51 10.6 49 9.4 92 92 SE 5 7 29.58 1002 4 6.43736 0 0.0254
7:00 pm 19:00 Cloudy with Light Drizzle 51 10.6 50 10 96 96 Calm 29.59 1002 4 6.43736 0 0.0254
7:23 pm 19:23 Cloudy with Mist and Fog 51 10.6 50 10 96 96 Calm 29.59 1002 5 8.0467 0 0.0254
7:52 pm 19:52 Cloudy with Light Rain 51 10.6 49 9.4 92 92 S 6 9 29.56 1001 6 9.65604 0 0.0254
8:00 pm 20:00 Cloudy with Light Rain 50 10 49 9.4 96 96 S 5 7 29.56 1001 5 8.0467 0 0.0254
8:22 pm 20:22 Cloudy with Light Rain 50 10 49 9.4 96 96 S 6 9 29.53 1000 3 4.82802 0.03 0.762
8:52 pm 20:52 Cloudy with Rain 51 10.6 50 10 96 96 S 3 6 29.53 1000 4 6.43736 0.04 1.016
9:40 pm 21:40 Cloudy with Light Rain 51 10.6 51 10.6 100 100 S 3 6 29.47 998 5 8.0467 0.03 0.762
9:52 pm 21:52 Cloudy with Light Rain 51 10.6 50 10 96 96 S 5 7 29.48 998 5 8.0467 0.03 0.762
10:20 pm 22:20 Cloudy with Light Rain 51 10.6 50 10 96 96 S 6 9 29.47 998 4 6.43736 0 0.0254
10:52 pm 22:52 Cloudy with Mist and Fog 51 10.6 50 10 96 96 S 6 9 29.44 997 3 4.82802 0 0.0254
10:56 pm 22:56 Cloudy with Mist and Fog 51 10.6 50 10 96 96 S 7 11 29.44 997 1 1.60934 0 0
11:03 pm 23:03 Cloudy with Mist and Fog 51 10.6 51 10.6 100 100 S 6 9 29.44 997 0.75 1.207005 0 0
11:09 pm 23:09 Cloudy with Fog 51 10.6 51 10.6 100 100 S 6 9 29.44 997 0.5 0.80467 0 0
11:37 pm 23:37 Mostly Cloudy with Light Drizzle 51 10.6 51 10.6 100 100 SW 5 7 29.44 997 1 1.60934 0 0.0254
11:52 pm 23:52 Cloudy with Light Drizzle 52 11.1 51 10.6 97 97 SW 10 17 29.44 997 2.5 4.02335 0 0.0254

Powered by AerisWeather